[Date Prev][Date Next][Thread Prev][Thread Next] - [Date Index][Thread Index][Author Index]

2 Line ISS Keps 9-26



ISS
1 25544U 98067A   07269.37582516  .00007575  00000-0  53517-4 0   508
2 25544 051.6342 301.8027 0002511 042.1742 035.8614 15.75217004506744
----
Sent via sarex@amsat.org. Opinions expressed are those of the author.
Not an AMSAT member? Join now to support the amateur satellite program!
Subscription settings: http://amsat.org/mailman/listinfo/sarex



AMSAT Top AMSAT Home